This is the latest recevied weather packets stored in our database for station/object K3HW. If no packets are shown the sender has not sent any weather packets the latest 10 day(s).
| Time | Temp. | Humidity | Pressure | Rain* | Wind** | Luminosity | Snow |
|---|---|---|---|---|---|---|---|
| 1777404547 | 15.56° C | 53% | 1022.7 hPa | 0 mm | - | 61 W/m² | - |
| 1777404242 | 15.56° C | 51% | 1022.9 hPa | 0 mm | - | 53 W/m² | - |
| 1777403939 | 15.56° C | 51% | 1022.8 hPa | 0 mm | - | 40 W/m² | - |
| 1777403638 | 15.56° C | 51% | 1022.9 hPa | 0 mm | - | 35 W/m² | - |
| 1777403333 | 16.11° C | 50% | 1023.2 hPa | 0 mm | - | 45 W/m² | - |
| 1777403033 | 16.11° C | 49% | 1023 hPa | 0 mm | - | 58 W/m² | - |
| 1777402728 | 16.11° C | 49% | 1023.1 hPa | 0 mm | - | 70 W/m² | - |
| 1777402424 | 16.11° C | 51% | 1023.2 hPa | 0 mm | - | 74 W/m² | - |
| 1777402122 | 16.11° C | 49% | 1023.1 hPa | 0 mm | - | 63 W/m² | - |
| 1777401818 | 16.11° C | 50% | 1023.2 hPa | 0 mm | - | 80 W/m² | - |
| 1777401517 | 16.11° C | 49% | 1023.3 hPa | 0 mm | - | 74 W/m² | - |
| 1777401213 | 16.11° C | 50% | 1023.2 hPa | 0 mm | - | 65 W/m² | - |
| 1777400908 | 16.11° C | 50% | 1023.1 hPa | 0 mm | - | 74 W/m² | - |
| 1777400605 | 16.11° C | 50% | 1023.3 hPa | 0 mm | - | 77 W/m² | - |
| 1777400303 | 16.11° C | 49% | 1023.6 hPa | 0 mm | - | 72 W/m² | - |
| 1777399998 | 16.11° C | 49% | 1023.6 hPa | 0 mm | - | 62 W/m² | - |
| 1777399696 | 16.11° C | 48% | 1023.6 hPa | 0 mm | - | 76 W/m² | - |
| 1777399392 | 16.67° C | 47% | 1023.5 hPa | 0 mm | - | 85 W/m² | - |
| 1777399090 | 16.67° C | 49% | 1023.8 hPa | 0 mm | - | 84 W/m² | - |
| 1777398787 | 16.67° C | 49% | 1023.8 hPa | 0 mm | - | 98 W/m² | - |
| 1777398485 | 16.11° C | 48% | 1023.9 hPa | 0 mm | - | 111 W/m² | - |
| 1777398181 | 16.67° C | 46% | 1023.9 hPa | 0 mm | - | 109 W/m² | - |
| 1777397878 | 16.67° C | 48% | 1023.7 hPa | 0 mm | - | 126 W/m² | - |
| 1777397578 | 16.67° C | 47% | 1023.8 hPa | 0 mm | - | 192 W/m² | - |
| 1777397274 | 16.67° C | 46% | 1024 hPa | 0 mm | - | 216 W/m² | - |
* Rain latest hour (hover to see other rain measurements)
** Current wind speed in m/s (hover to see current wind gust speed)